Volver al catálogo

CZ-2D DEB

ActivoSSO
NORAD 47974·DEBRIS·🇨🇳 China

Lanzado Sep 25, 2019 desde Jiuquan Satellite Launch Center

Loading…

Próximos Pases (próximas 24 horas)

TLE

ActualizadoSource: Space-Track

Época: Sep 14, 2026, 04:18 UTC

1 47974U 19063D   26257.17923789  .00000377  00000-0  12411-3 0  9997
2 47974  98.4575 333.3851 0022988 262.6563  97.2014 14.43518385300442

Sigue CZ-2D DEB en tiempo real con AllMySat

Download on the App Store